TOURFACTS.DK  
Stats and Facts from Tour de France.

Tour de France 2018 starts in 223 days
  Riders   Stages   Teams   Summits   Yearly  


 
Search by year

 2017 - St. 21:  14824 starters.
  5131 different riders.
  634 teams.
  2232 stages.
  454 restdays.
  439589.60 km.
  5653 abandonnees.


Top 3
Christopher Froome86:20:55
Rigoberto Uran86:21:49
Romain Bardet86:23:15
Warren Barguil169 pt.
Primoz Roglic80 pt.
Thomas De Gendt64 pt.
Michael Matthews359 pt.
André Greipel234 pt.
Edvald Boasson Hagen220 pt.
Simon Yates86:27:09
Louis Meintjes86:29:15
Emanuel Buchmann86:54:16
Facts from Tour de France 2016
  |   Stages.  |   Stage winners.  |   Days in yellow  |   Average speed.  |   Route.  |   Teams.  |   All riders.  |   Rookies.  |   Withdrawls.  |  

  |   GC.  |   Polka  |   Green  |   White  |   Summits. (In tour)  |   Summits. (Points)  |   Miscellaneous.  |  

Stage 16 on 18 - 07 - 2016
         Owning:    Christopher Froome      Rafal Majka      Peter Sagan      Adam Yates  

Pick a stage:  1 2 3 4 5 6 7 8 9 10 11 12 13 14 15 16 17 18 19 20 21
  Moirans-en-MontagneBern | Dist: 206.00 km.
Cat: 4Côte de MühlebergGERTony Martin
1 point
 

Average speed for all riders in stage:  45,962 km./hr.
    Place:Name:Team:Time:Km/h:
SVKPeter SaganRUSTinkoff04:26:02  +  00:00:00=46,460 
NORAlexander KristoffRUSTeam Katusha04:26:02  +  00:00:00=46,460 
NORSondre Holst EngerCHEIAM Cycling04:26:02  +  00:00:00=46,460 
4 GERJohn DegenkolbDEUTeam Giant Alpecin04:26:02  +  00:00:00=46,460 
5 AUSMichael MatthewsAUSORICA BikeExchange04:26:02  +  00:00:00=46,460 
6 SUIFabian CancellaraUSATrek – Segafredo04:26:02  +  00:00:00=46,460 
7 BELSep VanmarckeNLDTeam Lotto NL - Jumbo04:26:02  +  00:00:00=46,460 
8 BRAMaximilano RichezeBELEtixx - Quick Step04:26:02  +  00:00:00=46,460 
9 NOREdvald Boasson HagenZAFDimension Data04:26:02  +  00:00:00=46,460 
10 BELGreg Van AvermaetUSABMC Racing Team04:26:02  +  00:00:00=46,460 
11 ESPAlejandro ValverdeESPMovistar Team04:26:02  +  00:00:00=46,460 
12 AUTPatrick KonradDEUBora-Argon 1804:26:02  +  00:00:00=46,460 
13 FRARomain BardetFRAAg2r La Mondiale04:26:02  +  00:00:00=46,460 
14 KENChristopher FroomeGBRSky Procycling04:26:02  +  00:00:00=46,460 
15 RSALouis MeintjesITALampre-Merida04:26:02  +  00:00:00=46,460 
16 SUISébastien ReichenbachFRAFDJ04:26:02  +  00:00:00=46,460 
17 CZERoman KreuzigerRUSTinkoff04:26:02  +  00:00:00=46,460 
18 AUSRichie PorteUSABMC Racing Team04:26:02  +  00:00:00=46,460 
19 ENGAdam YatesAUSORICA BikeExchange04:26:02  +  00:00:00=46,460 
20 NEDBauke MollemaUSATrek – Segafredo04:26:02  +  00:00:00=46,460 
21 NEDWilco KeldermanNLDTeam Lotto NL - Jumbo04:26:02  +  00:00:00=46,460 
22 USATejay Van GarderenUSABMC Racing Team04:26:02  +  00:00:00=46,460 
23 IOMMark CavendishZAFDimension Data04:26:02  +  00:00:00=46,460 
24 NEDStef ClementCHEIAM Cycling04:26:02  +  00:00:00=46,460 
25 ESPJoaquim RodriguezRUSTeam Katusha04:26:02  +  00:00:00=46,460 
26 ITAFabio AruKAZAstana Pro Team04:26:02  +  00:00:00=46,460 
27 COLSergio Luis HenaoGBRSky Procycling04:26:02  +  00:00:00=46,460 
28 ENGDaniel MartinBELEtixx - Quick Step04:26:02  +  00:00:00=46,460 
29 COLNairo QuintanaESPMovistar Team04:26:02  +  00:00:00=46,460 
30 WALGeraint ThomasGBRSky Procycling04:26:02  +  00:00:00=46,460 
31 BELJulien VermoteBELEtixx - Quick Step04:26:02  +  00:00:00=46,460 
32 GERSimon GeschkeDEUTeam Giant Alpecin04:26:02  +  00:00:00=46,460 
33 FRASamuel DumoulinFRAAg2r La Mondiale04:26:02  +  00:00:00=46,460 
34 FRAWarren BarguilDEUTeam Giant Alpecin04:26:12  +  00:00:10=46,431 
35 ESPLuis Angel MateFRACofidis – Solutions Crédits04:26:23  +  00:00:21=46,399 
36 SLOBorut BozicFRACofidis – Solutions Crédits04:26:25  +  00:00:23=46,393 
37 URSRamunas NavardauskasUSATeam Cannondale Drapac04:26:35  +  00:00:33=46,364 
38 CZEPetr VakocBELEtixx - Quick Step04:26:40  +  00:00:38=46,350 
39 GEREmanuel BuchmannDEUBora-Argon 1804:26:41  +  00:00:39=46,347 
40 FRAAnthony RouxFRAFDJ04:26:41  +  00:00:39=46,347 
41 ESPImanol ErvitiESPMovistar Team04:26:41  +  00:00:39=46,347 
42 FRAArmindo FonsecaFRAFortuneo - Vital Concept04:26:41  +  00:00:39=46,347 
43 GERAndré GreipelBELLotto Soudal04:26:41  +  00:00:39=46,347 
44 SUIJakob FuglsangKAZAstana Pro Team04:26:41  +  00:00:39=46,347 
45 FRAMickaël CherelFRAAg2r La Mondiale04:26:41  +  00:00:39=46,347 
46 LUXFränk SchleckUSATrek – Segafredo04:26:41  +  00:00:39=46,347 
47 FRAPierre RollandUSATeam Cannondale Drapac04:26:41  +  00:00:39=46,347 
48 FRAAlexis VuillermozFRAAg2r La Mondiale04:26:41  +  00:00:39=46,347 
49 SLOJan PolancITALampre-Merida04:26:41  +  00:00:39=46,347 
50 AUSAdam HansenBELLotto Soudal04:26:41  +  00:00:39=46,347 
51 GERMarcus BurghardtUSABMC Racing Team04:26:41  +  00:00:39=46,347 
52 ITADamiano CarusoUSABMC Racing Team04:26:41  +  00:00:39=46,347 
53 ESPLuis León SánchezKAZAstana Pro Team04:26:41  +  00:00:39=46,347 
54 SUIReto HollensteinCHEIAM Cycling04:26:41  +  00:00:39=46,347 
55 ESPHaimar ZubeldiaUSATrek – Segafredo04:26:41  +  00:00:39=46,347 
56 BELJürgen RoelandtsBELLotto Soudal04:26:41  +  00:00:39=46,347 
57 SUIMichael SchärUSABMC Racing Team04:27:01  +  00:00:59=46,289 
58 GERPaul VossDEUBora-Argon 1804:27:01  +  00:00:59=46,289 
59 CZEJan BártaDEUBora-Argon 1804:27:01  +  00:00:59=46,289 
60 SUIMartin ElmigerCHEIAM Cycling04:27:01  +  00:00:59=46,289 
61 ITADiego RosaKAZAstana Pro Team04:27:01  +  00:00:59=46,289 
62 ITAVincenzo NibaliKAZAstana Pro Team04:27:01  +  00:00:59=46,289 
63 POLBartosz HuzarskiDEUBora-Argon 1804:27:01  +  00:00:59=46,289 
64 SUIGregory RastUSATrek – Segafredo04:27:01  +  00:00:59=46,289 
65 ITADomenico PozzovivoFRAAg2r La Mondiale04:27:01  +  00:00:59=46,289 
66 FRAArthur VichotFRAFDJ04:27:01  +  00:00:59=46,289 
67 BELJan BakelantsFRAAg2r La Mondiale04:27:01  +  00:00:59=46,289 
68 GERPaul MartensNLDTeam Lotto NL - Jumbo04:27:01  +  00:00:59=46,289 
69 HRVRobert KiserlovskiRUSTinkoff04:27:01  +  00:00:59=46,289 
70 AUTMarco HallerRUSTeam Katusha04:27:01  +  00:00:59=46,289 
71 ESPDaniel MorenoESPMovistar Team04:27:01  +  00:00:59=46,289 
72 RSAReinardt Janse Van RensburgZAFDimension Data04:27:01  +  00:00:59=46,289 
73 SLOKristjan KorenUSATeam Cannondale Drapac04:27:22  +  00:01:20=46,229 
74 ETHTsgabu Gebremaryan GrmayITALampre-Merida04:27:22  +  00:01:20=46,229 
75 NEDTimo RoosenNLDTeam Lotto NL - Jumbo04:27:22  +  00:01:20=46,229 
76 ITAPaolo TiralongoKAZAstana Pro Team04:27:22  +  00:01:20=46,229 
77 URSTanel KangertKAZAstana Pro Team04:27:22  +  00:01:20=46,229 
78 SUISteve MorabitoFRAFDJ04:27:22  +  00:01:20=46,229 
79 RSADaryl ImpeyAUSORICA BikeExchange04:27:22  +  00:01:20=46,229 
80 AUTGeorg PreidlerDEUTeam Giant Alpecin04:27:22  +  00:01:20=46,229 
81 NEDRoy CurversDEUTeam Giant Alpecin04:27:22  +  00:01:20=46,229 
82 NEDTom DumoulinDEUTeam Giant Alpecin04:27:22  +  00:01:20=46,229 
83 ESPMarkel IrizarUSATrek – Segafredo04:27:22  +  00:01:20=46,229 
84 RUSIlnur ZakarinRUSTeam Katusha04:27:22  +  00:01:20=46,229 
85 FRAAdrien PetitFRADirect Energie04:27:22  +  00:01:20=46,229 
86 SLOLuka PibernikITALampre-Merida04:27:22  +  00:01:20=46,229 
87 ESPGorka Izaguirre InsaustiESPMovistar Team04:27:22  +  00:01:20=46,229 
88 ESPJon Izaguirre InsaustiESPMovistar Team04:27:22  +  00:01:20=46,229 
89 FRABrice FeilluFRAFortuneo - Vital Concept04:27:22  +  00:01:20=46,229 
90 FRACyril GautierFRAAg2r La Mondiale04:27:22  +  00:01:20=46,229 
91 LUXBen GastauerFRAAg2r La Mondiale04:27:22  +  00:01:20=46,229 
92 ERIDaniel TeklehaimanotZAFDimension Data04:27:22  +  00:01:20=46,229 
93 BELJasper StuyvenUSATrek – Segafredo04:27:32  +  00:01:30=46,200 
94 NEDDylan GroenewegenNLDTeam Lotto NL - Jumbo04:28:00  +  00:01:58=46,119 
95 AUSMathew HaymanAUSORICA BikeExchange04:28:00  +  00:01:58=46,119 
96 ITAMatteo BonoITALampre-Merida04:28:10  +  00:02:08=46,091 
97 NEDDylan Van BaarleUSATeam Cannondale Drapac04:28:13  +  00:02:11=46,082 
98 BELMaarten WynantsNLDTeam Lotto NL - Jumbo04:28:29  +  00:02:27=46,036 
99 SUIMichael AlbasiniAUSORICA BikeExchange04:28:30  +  00:02:28=46,034 
100 NEDRamon SinkeldamDEUTeam Giant Alpecin04:28:32  +  00:02:30=46,028 
101 ENGIan StannardGBRSky Procycling04:28:45  +  00:02:43=45,991 
102 ITADavide CimolaiITALampre-Merida04:28:45  +  00:02:43=45,991 
103 KAZAlexey LutsenkoKAZAstana Pro Team04:28:48  +  00:02:46=45,982 
104 FRASylvain ChavanelFRADirect Energie04:28:56  +  00:02:54=45,959 
105 ESPMikel NieveGBRSky Procycling04:28:56  +  00:02:54=45,959 
106 ESPMikel Landa MeanaGBRSky Procycling04:28:56  +  00:02:54=45,959 
107 ITACesare BenedettiDEUBora-Argon 1804:28:56  +  00:02:54=45,959 
108 UKRAndriy GrivkoKAZAstana Pro Team04:28:56  +  00:02:54=45,959 
109 COLJarlinson Pantano GomezCHEIAM Cycling04:28:56  +  00:02:54=45,959 
110 COLWinner AnaconaESPMovistar Team04:28:56  +  00:02:54=45,959 
111 USAPeter StetinaUSATrek – Segafredo04:28:56  +  00:02:54=45,959 
112 DENChris Anker SørensenFRAFortuneo - Vital Concept04:28:56  +  00:02:54=45,959 
113 HRVKristijan DurasekITALampre-Merida04:28:56  +  00:02:54=45,959 
114 DENLars BakBELLotto Soudal04:28:56  +  00:02:54=45,959 
115 ITAFabio SabatiniBELEtixx - Quick Step04:28:56  +  00:02:54=45,959 
116 CANAntoine DuchesneFRADirect Energie04:28:56  +  00:02:54=45,959 
117 FRAWilliam BonnetFRAFDJ04:28:56  +  00:02:54=45,959 
118 PORRui CostaITALampre-Merida04:28:56  +  00:02:54=45,959 
119 JPNYukiya ArashiroITALampre-Merida04:28:56  +  00:02:54=45,959 
120 ESPDaniel NavarroFRACofidis – Solutions Crédits04:28:56  +  00:02:54=45,959 
121 BLRVasil KiryienkaGBRSky Procycling04:28:56  +  00:02:54=45,959 
122 FRAAnthony DelaplaceFRAFortuneo - Vital Concept04:28:56  +  00:02:54=45,959 
123 FRAFlorian VachonFRAFortuneo - Vital Concept04:28:56  +  00:02:54=45,959 
124 FRAJérôme CoppelCHEIAM Cycling04:28:56  +  00:02:54=45,959 
125 ESPRubén PlazaAUSORICA BikeExchange04:28:56  +  00:02:54=45,959 
126 FRAJérôme CousinFRACofidis – Solutions Crédits04:28:56  +  00:02:54=45,959 
127 FRAYohann GèneFRADirect Energie04:28:56  +  00:02:54=45,959 
128 PORNelson OliveiraESPMovistar Team04:28:56  +  00:02:54=45,959 
129 ARGEduardo SepulvedaFRAFortuneo - Vital Concept04:29:13  +  00:03:11=45,911 
130 BELSerge PauwelsZAFDimension Data04:29:14  +  00:03:12=45,908 
131 FRACyril LemoineFRACofidis – Solutions Crédits04:29:17  +  00:03:15=45,900 
132 WALLuke RoweGBRSky Procycling04:29:35  +  00:03:33=45,849 
133 NEDWout PoelsGBRSky Procycling04:29:35  +  00:03:33=45,849 
134 ITAOscar GattoRUSTinkoff04:29:46  +  00:03:44=45,817 
135 ESPAngel ViciosoRUSTeam Katusha04:29:46  +  00:03:44=45,817 
136 POLRafal MajkaRUSTinkoff04:29:55  +  00:03:53=45,792 
137 NEDLaurens ten DamDEUTeam Giant Alpecin04:30:02  +  00:04:00=45,772 
138 AUTBernhard EiselZAFDimension Data04:30:02  +  00:04:00=45,772 
139 GERRobert WagnerNLDTeam Lotto NL - Jumbo04:30:02  +  00:04:00=45,772 
140 NEDAlbert TimmerDEUTeam Giant Alpecin04:30:02  +  00:04:00=45,772 
141 NEDBert-Jan LindemanNLDTeam Lotto NL - Jumbo04:30:02  +  00:04:00=45,772 
142 ENGStephen CummingsZAFDimension Data04:30:20  +  00:04:18=45,721 
143 FRAAmaël MoinardUSABMC Racing Team04:30:20  +  00:04:18=45,721 
144 USABrent BookwalterUSABMC Racing Team04:30:20  +  00:04:18=45,721 
145 ITAJacopo GuarnieriRUSTeam Katusha04:30:20  +  00:04:18=45,721 
146 BELThomas De GendtBELLotto Soudal04:30:27  +  00:04:25=45,702 
147 GERMarcel SiebergBELLotto Soudal04:30:29  +  00:04:27=45,696 
148 FRABryan CoquardFRADirect Energie04:30:52  +  00:04:50=45,631 
149 FRAPierre-Luc PérichonFRAFortuneo - Vital Concept04:32:55  +  00:06:53=45,289 
150 IRLChristopher Juul JensenAUSORICA BikeExchange04:32:55  +  00:06:53=45,289 
151 AUSLuke DurbridgeAUSORICA BikeExchange04:32:55  +  00:06:53=45,289 
152 ERINatnael Teweldemedhin BerhaneZAFDimension Data04:32:55  +  00:06:53=45,289 
153 FRAGeoffrey SoupeFRACofidis – Solutions Crédits04:32:55  +  00:06:53=45,289 
154 NZLGeorge BennettNLDTeam Lotto NL - Jumbo04:33:13  +  00:07:11=45,239 
155 AUSRohan DennisUSABMC Racing Team04:33:13  +  00:07:11=45,239 
156 AUSLeigh HowardCHEIAM Cycling04:33:25  +  00:07:23=45,206 
157 NZLGregory HendersonBELLotto Soudal04:33:25  +  00:07:23=45,206 
158 GERAndreas SchillingerDEUBora-Argon 1804:33:25  +  00:07:23=45,206 
159 USAAlex HowesUSATeam Cannondale Drapac04:33:25  +  00:07:23=45,206 
160 NEDTom-Jelte SlagterUSATeam Cannondale Drapac04:33:25  +  00:07:23=45,206 
161 NORVegard BreenFRAFortuneo - Vital Concept04:33:25  +  00:07:23=45,206 
162 ENGDaniel McLayFRAFortuneo - Vital Concept04:33:25  +  00:07:23=45,206 
163 NZLShane ArchboldDEUBora-Argon 1804:33:25  +  00:07:23=45,206 
164 FRARomain SicardFRADirect Energie04:33:25  +  00:07:23=45,206 
165 FRANicolas EdetFRACofidis – Solutions Crédits04:34:19  +  00:08:17=45,057 
166 USALawson CraddockUSATeam Cannondale Drapac04:34:20  +  00:08:18=45,055 
167 FRAJérémy RoyFRAFDJ04:34:20  +  00:08:18=45,055 
168 FRAArnold JeannessonFRACofidis – Solutions Crédits04:34:20  +  00:08:18=45,055 
169 DENMichael ValgrenRUSTinkoff04:34:20  +  00:08:18=45,055 
170 ESPAlberto LosadaRUSTeam Katusha04:34:20  +  00:08:18=45,055 
171 FRAThomas VoecklerFRADirect Energie04:34:20  +  00:08:18=45,055 
172 POLMaciej BodnarRUSTinkoff04:34:20  +  00:08:18=45,055 
173 FRA Alexis GougeardFRAAg2r La Mondiale04:34:20  +  00:08:18=45,055 
174 ITAMatteo TosattoRUSTinkoff04:34:43  +  00:08:41=44,992 
175 BELIljo KeisseBELEtixx - Quick Step04:37:27  +  00:11:25=44,549 
176 FRATony GallopinBELLotto Soudal04:37:58  +  00:11:56=44,466 
177 BELSam BennettDEUBora-Argon 1804:37:58  +  00:11:56=44,466 
178 FRAFabrice JeandesbozFRADirect Energie04:37:58  +  00:11:56=44,466 
179 FRAChristophe LaporteFRACofidis – Solutions Crédits04:38:16  +  00:12:14=44,418 
180 GERTony MartinBELEtixx - Quick Step04:38:22  +  00:12:20=44,402 
181 FRAJulian AlaphilippeBELEtixx - Quick Step04:38:22  +  00:12:20=44,402 


Todays birthdays.

1885  Léon Vallotton
1889  Carlo Longoni
1890  Maurice Leliaert
1895  Omer Vermeulen
1904  Georges Dever
1904  Augusto Zanzi
1912  François Neuville
1935  Vic Denson
1972  Félix Cárdenas
1975  Guido Trentin
1983  Luis León Sánchez